1501387200.34,1512,19.63,74470.8,7.63,-23.19,-23.59,0,*4C
1501387201.58,1513,19.63,74472.3,7.65,-22.97,-23.49,0,*4D
1501387202.86,1514,19.63,74472.5,7.65,-22.77,-23.19,0,*41
1501387204.1,1515,19.63,74470.0,7.65,-22.93,-23.33,0,*42
1501387205.3,1516,19.63,74468.8,7.63,-22.97,-23.43,0,*44
1501387206.54,1517,19.63,74470.0,7.65,-22.93,-23.29,0,*4B
1501387207.77,1518,19.63,74468.8,7.65,-22.93,-23.43,0,*48
1501387208.99,1519,19.63,74468.3,7.63,-22.93,-23.33,0,*48
1501387210.24,1520,19.63,74466.5,7.65,-22.77,-22.97,0,*41
1501387211.51,1521,19.63,74468.3,7.65,-22.77,-23.19,0,*47
1501387212.76,1522,19.63,74468.3,7.65,-22.83,-23.19,0,*4F
1501387214.0,1523,19.63,74468.3,7.65,-22.83,-23.29,0,*4D
1501387215.24,1524,19.63,74470.3,7.65,-22.83,-23.29,0,*4A
1501387216.48,1525,19.63,74470.3,7.65,-23.13,-23.49,0,*45
1501387217.67,1526,19.63,74474.3,7.67,-22.97,-23.39,0,*4E
1501387218.86,1527,19.63,74468.8,7.67,-23.09,-23.39,0,*49
1501387220.05,1528,19.63,74472.0,7.67,-22.97,-23.39,0,*40
1501387221.26,1529,19.63,74470.3,7.67,-23.09,-23.43,0,*4A
1501387222.45,1530,19.63,74468.3,7.67,-22.93,-23.39,0,*4D
1501387223.66,1531,19.63,74470.3,7.67,-23.09,-23.53,0,*42
1501387224.88,1532,19.63,74472.3,7.67,-23.13,-23.53,0,*4A
1501387226.1,1533,19.63,74474.0,7.65,-22.93,-23.43,0,*41
1501387227.35,1534,19.63,74474.5,7.65,-23.03,-23.43,0,*4E
1501387228.54,1535,19.63,74470.5,7.67,-22.97,-23.39,0,*4C
1501387229.76,1536,19.63,74474.0,7.67,-22.93,-23.29,0,*4A
1501387230.98,1537,19.63,74472.8,7.71,-22.73,-23.09,0,*40
1501387232.2,1538,19.63,74472.5,7.67,-22.77,-22.97,0,*4A
1501387233.42,1539,19.63,74470.8,7.67,-22.83,-23.23,0,*4E
1501387234.64,1540,19.63,74468.3,7.71,-22.53,-22.73,0,*4E
1501387235.85,1541,19.63,74468.3,7.67,-22.73,-22.97,0,*40
1501387237.07,1542,19.63,74470.5,7.71,-22.83,-23.23,0,*45
1501387238.3,1543,19.63,74470.0,7.71,-22.77,-23.09,0,*47
1501387239.52,1544,19.63,74468.5,7.71,-22.73,-22.93,0,*46
1501387240.73,1545,19.63,74472.0,7.71,-22.83,-23.19,0,*4B
1501387241.98,1546,19.63,74466.8,7.71,-22.77,-23.23,0,*4A
1501387243.17,1547,19.63,74472.0,7.71,-22.67,-22.83,0,*41
1501387244.37,1548,19.63,74468.5,7.71,-22.67,-23.09,0,*4D
1501387245.59,1549,19.63,74470.0,7.71,-22.73,-23.09,0,*49
1501387246.78,1550,19.63,74472.5,7.71,-22.67,-22.83,0,*47
1501387247.99,1551,19.63,74470.5,7.73,-22.67,-23.09,0,*47
1501387249.26,1552,19.63,74472.3,7.73,-22.73,-23.19,0,*40
1501387250.52,1553,19.63,74468.0,7.73,-22.73,-23.03,0,*4A
1501387251.76,1554,19.63,74472.8,7.73,-22.73,-23.09,0,*47
1501387252.98,1555,19.63,74476.3,7.73,-22.67,-23.13,0,*48
1501387254.17,1556,19.63,74470.8,7.75,-22.67,-23.13,0,*4D
1501387255.41,1557,19.63,74470.5,7.73,-22.73,-23.09,0,*44
1501387256.62,1558,19.63,74470.5,7.73,-22.53,-22.87,0,*4E
1501387257.82,1559,19.63,74468.5,7.75,-22.53,-22.83,0,*4D
1501387259.06,1560,19.63,74470.5,7.73,-22.73,-23.09,0,*40
1501387260.25,1561,19.63,74470.8,7.75,-22.63,-22.83,0,*45
1501387261.43,1562,19.63,74468.8,7.75,-22.63,-22.87,0,*42
1501387262.68,1563,19.63,74468.3,7.75,-22.77,-23.03,0,*4B
1501387263.89,1564,19.63,74468.5,7.75,-22.83,-23.29,0,*4F
1501387265.08,1565,19.63,74470.5,7.75,-22.67,-22.87,0,*41
1501387266.3,1566,19.63,74470.5,7.75,-22.67,-23.19,0,*44
1501387267.54,1567,19.63,74470.0,7.75,-22.77,-23.03,0,*4F
1501387268.79,1568,19.63,74474.3,7.77,-22.67,-23.03,0,*43
1501387270.04,1569,19.63,74470.5,7.77,-22.67,-23.03,0,*42
1501387271.22,1570,19.63,74470.0,7.79,-22.63,-22.83,0,*49
1501387272.47,1571,19.63,74468.8,7.77,-22.77,-23.13,0,*4B
1501387273.75,1572,19.63,74470.0,7.77,-22.77,-23.03,0,*49
1501387274.97,1573,19.63,74466.5,7.79,-22.93,-23.23,0,*4E
1501387276.19,1574,19.63,74470.0,7.79,-22.83,-23.23,0,*48
1501387277.41,1575,19.63,74470.5,7.79,-22.73,-22.97,0,*48
1501387278.6,1576,19.63,74472.0,7.79,-22.63,-23.09,0,*4C
1501387279.85,1577,19.63,74468.3,7.77,-22.67,-23.03,0,*4D
1501387281.07,1578,19.63,74470.8,7.79,-22.73,-23.09,0,*43
1501387282.31,1579,19.63,74470.5,7.77,-22.87,-23.19,0,*46
1501387283.56,1580,19.63,74474.0,7.77,-22.83,-23.19,0,*44
1501387284.77,1581,19.63,74468.8,7.79,-22.73,-23.09,0,*45
1501387286.02,1582,19.63,74468.8,7.77,-22.67,-23.03,0,*47
1501387287.21,1583,19.63,74470.8,7.79,-22.63,-23.09,0,*46
1501387288.43,1584,19.63,74468.8,7.79,-22.87,-23.19,0,*4A
1501387289.68,1585,19.63,74468.3,7.79,-22.77,-23.23,0,*4D
1501387290.9,1586,19.63,74466.5,7.79,-22.93,-23.23,0,*44
1501387292.12,1587,19.63,74470.0,7.79,-22.93,-23.29,0,*4F
1501387293.37,1588,19.63,74470.5,7.81,-23.03,-23.33,0,*44
1501387294.59,1589,19.63,74468.0,7.81,-22.87,-23.19,0,*40
1501387295.82,1590,19.63,74472.8,7.81,-22.93,-23.23,0,*44
1501387297.06,1591,19.63,74474.3,7.81,-23.19,-23.53,0,*41
1501387298.31,1592,19.63,74468.3,7.81,-23.23,-23.65,0,*4E
1501387299.54,1593,19.63,74468.0,7.79,-23.23,-23.53,0,*4D
1501387300.76,1594,19.63,74470.0,7.79,-22.93,-23.29,0,*4D
1501387301.96,1595,19.63,74474.0,7.79,-23.09,-23.43,0,*42
1501387303.21,1596,19.63,74468.3,7.81,-23.03,-23.33,0,*4B
1501387304.43,1597,19.63,74470.0,7.81,-23.09,-23.33,0,*40
1501387305.65,1598,19.63,74468.3,7.81,-22.87,-23.23,0,*49
1501387306.91,1599,19.63,74470.0,7.81,-22.77,-23.23,0,*47
1501387308.13,1600,19.63,74464.5,7.79,-22.93,-23.29,0,*43
1501387309.36,1601,19.63,74464.5,7.81,-22.93,-23.23,0,*4F
1501387310.61,1602,19.63,74464.5,7.81,-22.73,-23.19,0,*4B
1501387311.86,1603,19.63,74466.0,7.81,-22.77,-23.19,0,*4E
1501387313.11,1604,19.63,74464.0,7.81,-22.73,-23.19,0,*4D
1501387314.36,1605,19.63,74462.8,7.81,-23.03,-23.23,0,*43
1501387315.62,1606,19.63,74460.5,7.81,-23.03,-23.23,0,*40
1501387316.84,1607,19.63,74466.3,7.81,-23.09,-23.33,0,*4A
1501387318.07,1608,19.63,74466.3,7.81,-23.09,-23.49,0,*48
1501387319.29,1609,19.63,74468.0,7.81,-22.87,-23.23,0,*42
1501387320.49,1610,19.63,74464.0,7.81,-23.09,-23.39,0,*46
1501387321.72,1611,19.63,74470.0,7.81,-22.93,-23.23,0,*4E
1501387322.92,1612,19.63,74468.8,7.81,-22.87,-23.09,0,*40
1501387324.15,1613,19.63,74466.8,7.81,-22.93,-23.19,0,*45
1501387325.38,1614,19.63,74468.8,7.81,-22.93,-23.19,0,*42
1501387326.6,1615,19.63,74466.0,7.81,-22.87,-23.19,0,*46
1501387327.85,1616,19.63,74466.3,7.81,-22.77,-23.19,0,*4A
1501387329.1,1617,19.63,74468.0,7.83,-22.87,-23.19,0,*46
1501387330.34,1618,19.63,74468.3,7.83,-22.87,-23.33,0,*41
1501387331.58,1619,19.63,74468.0,7.81,-23.03,-23.33,0,*4F
1501387332.81,1620,19.63,74464.0,7.81,-22.93,-23.33,0,*4D
1501387334.04,1621,19.63,74468.8,7.81,-22.93,-23.23,0,*4D
1501387335.32,1622,19.63,74470.0,7.83,-22.77,-23.19,0,*4F
1501387336.58,1623,19.63,74468.8,7.83,-22.73,-23.03,0,*41
1501387337.81,1624,19.63,74466.5,7.81,-22.93,-23.19,0,*41
1501387339.03,1625,19.63,74466.3,7.83,-22.87,-23.09,0,*46
1501387340.25,1626,19.63,74468.5,7.81,-22.87,-23.19,0,*46
1501387341.47,1627,19.63,74470.5,7.83,-22.67,-23.09,0,*4A
1501387342.72,1628,19.63,74464.0,7.83,-22.77,-23.09,0,*44
1501387343.95,1629,19.63,74464.8,7.81,-22.93,-23.19,0,*4C
1501387345.2,1630,19.63,74466.8,7.83,-22.93,-23.19,0,*46
1501387346.42,1631,19.63,74466.8,7.83,-22.67,-22.93,0,*4F
1501387347.7,1632,19.63,74464.3,7.83,-22.77,-23.03,0,*45
1501387348.92,1633,19.63,74466.3,7.83,-22.57,-22.93,0,*4E
1501387350.12,1634,19.63,74464.3,7.85,-22.63,-22.97,0,*4C
1501387351.32,1635,19.63,74464.8,7.85,-22.63,-22.97,0,*4D
1501387352.54,1636,19.63,74466.0,7.87,-22.63,-22.97,0,*4C
1501387353.82,1637,19.63,74464.8,7.87,-22.73,-23.03,0,*40
1501387355.04,1638,19.63,74466.0,7.85,-22.73,-23.13,0,*4C
1501387356.29,1639,19.63,74466.8,7.87,-22.73,-23.13,0,*4F
1501387357.52,1640,19.63,74468.3,7.85,-22.97,-23.19,0,*43
1501387358.77,1641,19.63,74468.3,7.87,-22.97,-23.19,0,*40
1501387359.99,1642,19.63,74468.0,7.85,-22.83,-23.19,0,*44
1501387361.24,1643,19.69,74470.8,7.87,-22.87,-23.19,0,*43
1501387362.47,1644,19.63,74468.5,7.85,-22.97,-23.29,0,*44
1501387363.69,1645,19.63,74466.3,7.85,-22.97,-23.33,0,*4E
1501387364.91,1646,19.69,74468.0,7.85,-23.13,-23.49,0,*4D
1501387366.17,1647,19.63,74464.8,7.85,-23.19,-23.49,0,*46
1501387367.41,1648,19.63,74468.0,7.85,-23.19,-23.49,0,*49
1501387368.64,1649,19.63,74466.5,7.85,-23.33,-23.59,0,*41
1501387369.86,1650,19.63,74468.5,7.85,-23.29,-23.59,0,*42
1501387371.08,1651,19.63,74468.8,7.85,-23.29,-23.59,0,*43
1501387372.3,1652,19.63,74464.5,7.85,-23.19,-23.59,0,*43
1501387373.52,1653,19.63,74470.3,7.85,-22.97,-23.33,0,*49
1501387374.77,1654,19.69,74470.3,7.85,-23.03,-23.33,0,*42
1501387376.04,1655,19.69,74468.8,7.83,-23.19,-23.49,0,*43
1501387377.31,1656,19.69,74468.0,7.83,-23.23,-23.65,0,*47
1501387378.5,1657,19.69,74470.8,7.81,-23.39,-23.79,0,*42
1501387379.73,1658,19.63,74466.8,7.83,-23.39,-23.69,0,*4E
1501387380.94,1659,19.69,74470.8,7.83,-23.39,-23.89,0,*41
1501387382.2,1660,19.69,74472.3,7.83,-23.49,-23.99,0,*4D
1501387383.45,1661,19.69,74470.5,7.81,-23.49,-23.85,0,*43
1501387384.66,1662,19.69,74468.8,7.83,-23.39,-23.79,0,*46
1501387385.88,1663,19.69,74468.5,7.83,-23.39,-23.79,0,*47
1501387387.1,1664,19.69,74470.8,7.81,-23.53,-23.89,0,*41
1501387388.37,1665,19.69,74468.8,7.83,-23.49,-23.85,0,*45
1501387389.62,1666,19.69,74468.3,7.81,-23.53,-23.85,0,*4F
1501387390.81,1667,19.63,74466.5,7.81,-23.39,-23.79,0,*41
1501387392.03,1668,19.69,74470.0,7.81,-23.23,-23.79,0,*45
1501387393.22,1669,19.69,74470.0,7.81,-23.39,-23.79,0,*4F
1501387394.44,1670,19.69,74470.3,7.81,-23.53,-23.89,0,*44
1501387395.66,1671,19.69,74472.0,7.81,-23.49,-23.89,0,*4E
1501387396.87,1672,19.69,74468.3,7.79,-23.53,-23.89,0,*41
1501387398.09,1673,19.69,74474.8,7.79,-23.53,-23.89,0,*40
1501387399.3,1674,19.69,74470.3,7.79,-23.59,-23.95,0,*40
1501387400.52,1675,19.69,74470.8,7.79,-23.53,-24.05,0,*45
1501387401.76,1676,19.69,74470.5,7.79,-23.53,-23.95,0,*48
1501387403.02,1677,19.69,74468.8,7.77,-23.49,-23.99,0,*40
1501387404.2,1678,19.69,74468.3,7.79,-23.39,-23.79,0,*48
1501387405.43,1679,19.69,74468.8,7.77,-23.43,-23.79,0,*4A
1501387406.67,1680,19.69,74468.5,7.77,-23.49,-23.79,0,*46
1501387407.86,1681,19.69,74466.8,7.79,-23.59,-23.89,0,*47
1501387409.1,1682,19.69,74470.0,7.77,-23.49,-23.89,0,*4B
1501387410.29,1683,19.69,74472.5,7.79,-23.39,-23.75,0,*40
1501387411.53,1684,19.69,74470.0,7.79,-23.29,-23.69,0,*4B
1501387412.75,1685,19.69,74472.5,7.77,-23.43,-23.89,0,*46
1501387413.97,1686,19.69,74468.8,7.77,-23.43,-23.79,0,*4A
1501387415.21,1687,19.69,74468.3,7.77,-23.19,-23.59,0,*46
1501387416.43,1688,19.69,74470.8,7.79,-23.19,-23.39,0,*41
1501387417.63,1689,19.69,74470.0,7.79,-23.09,-23.43,0,*4C
1501387418.84,1690,19.69,74470.8,7.79,-23.13,-23.53,0,*4E
1501387420.09,1691,19.69,74468.8,7.77,-23.19,-23.79,0,*43
1501387421.33,1692,19.69,74470.5,7.77,-23.33,-23.75,0,*44
1501387422.6,1693,19.69,74468.5,7.77,-23.29,-23.65,0,*4F
1501387423.84,1694,19.69,74470.8,7.77,-23.33,-23.75,0,*42
1501387425.09,1695,19.69,74468.5,7.77,-23.33,-23.79,0,*4F
1501387426.33,1696,19.69,74470.3,7.77,-23.29,-23.75,0,*4B
1501387427.58,1697,19.69,74470.3,7.77,-23.33,-23.75,0,*41
1501387428.84,1698,19.69,74474.0,7.77,-23.49,-23.95,0,*4D
1501387430.11,1699,19.69,74468.0,7.77,-23.49,-23.99,0,*40
1501387431.3,1700,19.69,74470.0,7.75,-23.43,-23.89,0,*48
1501387432.54,1701,19.63,74470.5,7.75,-23.19,-23.65,0,*44
1501387433.78,1702,19.69,74470.8,7.75,-23.29,-23.65,0,*44
1501387434.99,1703,19.69,74470.5,7.75,-23.33,-23.75,0,*4F
1501387436.21,1704,19.69,74474.3,7.75,-23.33,-23.79,0,*44
1501387437.42,1705,19.69,74468.3,7.75,-23.29,-23.75,0,*42
1501387438.62,1706,19.69,74472.0,7.75,-23.43,-23.75,0,*4D
1501387439.81,1707,19.69,74470.3,7.75,-23.43,-23.79,0,*40
1501387441.0,1708,19.63,74470.3,7.75,-23.43,-23.79,0,*4F
1501387442.24,1709,19.69,74470.3,7.75,-23.29,-23.65,0,*4F
1501387443.45,1710,19.69,74470.8,7.75,-23.19,-23.59,0,*4B
1501387444.67,1711,19.69,74470.3,7.75,-23.33,-23.79,0,*40
1501387445.88,1712,19.69,74470.0,7.75,-23.33,-23.59,0,*41
1501387447.09,1713,19.69,74472.3,7.75,-23.19,-23.59,0,*48
1501387448.31,1714,19.69,74472.0,7.75,-23.13,-23.49,0,*44
1501387449.55,1715,19.69,74474.8,7.75,-23.19,-23.49,0,*4F
1501387450.77,1716,19.63,74468.5,7.75,-23.19,-23.59,0,*4D
1501387452.0,1717,19.69,74474.0,7.75,-23.33,-23.65,0,*4B
1501387453.24,1718,19.69,74472.3,7.75,-23.29,-23.65,0,*4F
1501387454.48,1719,19.69,74472.3,7.75,-23.19,-23.49,0,*43
1501387455.72,1720,19.69,74474.0,7.73,-23.33,-23.79,0,*44
1501387456.91,1721,19.69,74468.3,7.75,-23.43,-23.75,0,*48
1501387458.17,1722,19.69,74464.8,7.73,-23.33,-23.69,0,*47
1501387459.36,1723,19.69,74470.8,7.75,-23.13,-23.59,0,*41
1501387460.58,1724,19.69,74468.5,7.75,-23.19,-23.59,0,*4C
1501387461.84,1725,19.69,74464.5,7.73,-23.23,-23.53,0,*48
1501387463.08,1726,19.69,74470.3,7.75,-23.03,-23.33,0,*49
1501387464.29,1727,19.69,74470.5,7.75,-22.97,-23.33,0,*44
1501387465.51,1728,19.69,74470.0,7.75,-22.97,-23.33,0,*4B
1501387466.75,1729,19.69,74468.8,7.75,-23.03,-23.49,0,*4B
1501387467.94,1730,19.69,74468.3,7.79,-22.97,-23.39,0,*44
1501387469.21,1731,19.69,74464.8,7.77,-23.03,-23.33,0,*4D
1501387470.46,1732,19.69,74464.0,7.77,-22.87,-23.33,0,*43
1501387471.69,1733,19.69,74466.8,7.77,-22.87,-23.29,0,*49
1501387472.93,1734,19.69,74466.3,7.77,-22.87,-23.29,0,*4E
1501387474.18,1735,19.69,74466.0,7.77,-23.03,-23.43,0,*4E
1501387475.4,1736,19.69,74470.3,7.79,-22.83,-23.19,0,*45
1501387476.64,1737,19.69,74470.5,7.77,-22.87,-23.33,0,*46
1501387477.91,1738,19.69,74468.8,7.77,-23.03,-23.33,0,*44
1501387479.16,1739,19.69,74464.3,7.77,-23.19,-23.59,0,*42
1501387480.35,1740,19.69,74464.8,7.79,-23.13,-23.43,0,*43
1501387481.55,1741,19.69,74468.3,7.79,-23.09,-23.43,0,*49
1501387482.8,1742,19.69,74470.5,7.77,-23.33,-23.59,0,*46
1501387484.07,1743,19.69,74468.0,7.77,-23.29,-23.49,0,*4D
1501387485.26,1744,19.69,74472.0,7.79,-23.09,-23.39,0,*41
1501387486.5,1745,19.69,74474.5,7.77,-22.87,-23.29,0,*48
1501387487.72,1746,19.69,74470.3,7.79,-22.83,-23.23,0,*4B
1501387488.91,1747,19.69,74470.3,7.79,-22.97,-23.39,0,*44
1501387490.15,1748,19.69,74468.8,7.77,-22.97,-23.29,0,*44
1501387491.35,1749,19.69,74470.3,7.79,-22.83,-23.09,0,*4C
1501387492.57,1750,19.69,74468.5,7.77,-22.67,-23.13,0,*4B
1501387493.76,1751,19.69,74468.3,7.79,-22.63,-22.97,0,*4D
1501387494.97,1752,19.69,74466.0,7.79,-22.73,-22.97,0,*4F
1501387496.19,1753,19.69,74466.5,7.79,-22.63,-23.23,0,*41
1501387497.42,1754,19.69,74466.5,7.81,-22.67,-23.03,0,*47
1501387498.64,1755,19.69,74466.8,7.81,-22.57,-22.77,0,*47
1501387499.91,1756,19.69,74464.0,7.83,-22.73,-23.19,0,*49
1501387501.14,1757,19.69,74468.8,7.81,-22.57,-22.77,0,*45
1501387502.4,1758,19.69,74464.0,7.81,-22.77,-23.19,0,*41
1501387503.62,1759,19.69,74466.8,7.81,-22.87,-23.23,0,*46
1501387504.85,1760,19.69,74468.5,7.83,-22.57,-22.93,0,*49
1501387506.11,1761,19.69,74464.3,7.83,-22.73,-23.03,0,*46
1501387507.34,1762,19.69,74466.5,7.85,-22.57,-22.73,0,*43
1501387508.54,1763,19.69,74468.5,7.85,-22.63,-22.97,0,*4F
1501387509.74,1764,19.69,74466.8,7.85,-22.67,-22.97,0,*4C
1501387510.98,1765,19.69,74464.8,7.83,-22.67,-23.03,0,*47
1501387512.18,1766,19.69,74464.0,7.85,-22.63,-22.97,0,*4A
1501387513.4,1767,19.69,74464.5,7.87,-22.63,-22.97,0,*49
1501387514.65,1768,19.69,74470.0,7.87,-22.73,-23.13,0,*4A
1501387515.9,1769,19.69,74470.3,7.87,-22.73,-23.13,0,*4B
1501387517.11,1770,19.69,74470.0,7.85,-22.87,-23.29,0,*43
1501387518.34,1771,19.69,74464.0,7.87,-22.83,-23.13,0,*4D
1501387519.59,1772,19.69,74466.5,7.87,-22.83,-23.19,0,*44
1501387520.84,1773,19.75,74468.0,7.87,-22.97,-23.33,0,*48
1501387522.09,1774,19.69,74464.5,7.87,-22.97,-23.19,0,*47
1501387523.35,1775,19.69,74466.5,7.85,-23.03,-23.19,0,*48
1501387524.62,1776,19.69,74466.8,7.87,-23.03,-23.29,0,*4A
1501387525.87,1777,19.69,74466.8,7.87,-23.19,-23.59,0,*47
1501387527.11,1778,19.69,74466.5,7.87,-23.29,-23.59,0,*4B
1501387528.36,1779,19.69,74468.5,7.85,-23.29,-23.49,0,*49
1501387529.61,1780,19.75,74470.3,7.87,-23.19,-23.59,0,*4F
1501387530.85,1781,19.69,74470.3,7.85,-23.29,-23.65,0,*40
1501387532.1,1782,19.75,74468.8,7.85,-23.33,-23.65,0,*48
1501387533.34,1783,19.75,74474.0,7.87,-23.33,-23.59,0,*44
1501387534.57,1784,19.69,74470.8,7.85,-22.97,-23.19,0,*4A
1501387535.8,1785,19.69,74470.5,7.85,-22.83,-23.19,0,*4E
1501387537.01,1786,19.69,74468.3,7.85,-22.87,-23.29,0,*4A
1501387538.24,1787,19.69,74468.0,7.85,-22.73,-23.13,0,*49
1501387539.48,1788,19.75,74468.0,7.87,-22.63,-22.73,0,*42
1501387540.68,1789,19.69,74468.0,7.85,-22.63,-22.97,0,*4B
1501387541.9,1790,19.75,74470.3,7.87,-22.63,-22.97,0,*41
1501387543.12,1791,19.75,74468.3,7.85,-22.73,-23.13,0,*4E
1501387544.34,1792,19.69,74466.3,7.87,-22.87,-23.13,0,*44
1501387545.59,1793,19.69,74470.3,7.87,-22.97,-23.29,0,*4D
1501387546.84,1794,19.75,74470.3,7.85,-22.73,-23.03,0,*4A
1501387548.07,1795,19.75,74472.0,7.87,-22.67,-22.97,0,*40
1501387549.29,1796,19.75,74472.0,7.87,-22.87,-23.13,0,*40
1501387550.51,1797,19.75,74468.0,7.85,-22.83,-23.19,0,*4D
1501387551.76,1798,19.75,74468.8,7.87,-22.83,-23.03,0,*4B
1501387552.96,1799,19.75,74470.5,7.89,-22.83,-23.09,0,*4E
1501387554.17,1800,19.75,74472.8,7.89,-23.13,-23.43,0,*47
1501387555.37,1801,19.69,74468.5,7.89,-23.13,-23.43,0,*46
1501387556.57,1802,19.75,74470.5,7.89,-23.13,-23.39,0,*48
1501387557.84,1803,19.75,74470.3,7.87,-23.03,-23.33,0,*4C
1501387559.05,1804,19.75,74468.8,7.89,-23.09,-23.43,0,*48
1501387560.27,1805,19.75,74470.5,7.89,-23.13,-23.29,0,*4E
1501387561.47,1806,19.75,74468.8,7.89,-23.13,-23.43,0,*41
1501387562.71,1807,19.75,74468.3,7.87,-23.13,-23.29,0,*42
1501387563.92,1808,19.75,74468.8,7.89,-22.83,-23.09,0,*49
1501387565.12,1809,19.75,74468.0,7.89,-22.97,-23.13,0,*46
1501387566.31,1810,19.75,74468.0,7.89,-22.63,-22.97,0,*48
1501387567.51,1811,19.75,74468.8,7.89,-22.67,-23.09,0,*4B
1501387568.74,1812,19.75,74470.3,7.89,-22.93,-23.23,0,*4B
1501387569.99,1813,19.75,74470.3,7.89,-22.73,-23.03,0,*46
1501387571.19,1814,19.75,74466.5,7.89,-22.57,-22.83,0,*4E
1501387572.39,1815,19.75,74468.5,7.93,-22.41,-22.57,0,*4A
1501387573.59,1816,19.75,74464.8,7.89,-22.41,-22.57,0,*42
1501387574.78,1817,19.75,74464.5,7.89,-22.41,-22.63,0,*44
1501387576.01,1818,19.75,74462.0,7.93,-22.21,-22.27,0,*46
1501387577.23,1819,19.75,74452.0,7.93,-21.93,-22.21,0,*4B
1501387578.5,1820,19.75,74452.0,7.95,-22.21,-22.21,0,*4D
1501387579.75,1821,19.75,74456.0,7.95,-22.21,-22.53,0,*49
1501387580.97,1822,19.75,74462.5,7.97,-22.31,-22.57,0,*4D
1501387582.18,1823,19.75,74460.0,7.97,-22.53,-22.57,0,*48
1501387583.4,1824,19.75,74466.8,7.97,-22.37,-22.73,0,*4B
1501387584.6,1825,19.75,74466.8,7.97,-22.57,-22.97,0,*46
1501387585.82,1826,19.75,74464.0,7.99,-22.67,-22.87,0,*49
1501387587.02,1827,19.75,74464.3,7.97,-22.67,-22.97,0,*47
1501387588.22,1828,19.75,74464.8,7.97,-22.53,-22.87,0,*4E
1501387589.45,1829,19.75,74466.8,7.97,-22.47,-22.83,0,*4E
1501387590.66,1830,19.75,74470.5,7.99,-22.37,-22.83,0,*4F
1501387591.89,1831,19.75,74470.8,7.99,-22.57,-22.97,0,*4D
1501387593.11,1832,19.75,74468.3,8.01,-22.47,-22.83,0,*44
1501387594.33,1833,19.75,74466.3,7.99,-22.67,-22.97,0,*4C
1501387595.55,1834,19.75,74466.3,7.99,-22.67,-22.97,0,*4B
1501387596.78,1835,19.75,74468.0,8.01,-22.77,-22.97,0,*45
1501387598.02,1836,19.75,74468.8,7.99,-22.67,-23.03,0,*45
1501387599.25,1837,19.75,74468.0,7.99,-22.53,-22.83,0,*4A
1501387600.44,1838,19.75,74464.5,8.01,-22.63,-22.93,0,*49
1501387601.64,1839,19.75,74470.8,8.01,-22.67,-22.97,0,*48
1501387602.86,1840,19.75,74470.5,8.01,-22.77,-23.13,0,*4A
1501387604.1,1841,19.81,74474.5,7.99,-22.87,-23.29,0,*43
1501387605.31,1842,19.75,74470.0,7.99,-22.87,-23.13,0,*49
1501387606.51,1843,19.81,74474.0,8.01,-22.83,-23.09,0,*49
1501387607.75,1844,19.75,74468.5,7.99,-22.73,-23.09,0,*4F
1501387608.97,1845,19.75,74466.0,8.01,-22.93,-23.29,0,*4C
1501387610.17,1846,19.81,74470.3,8.01,-22.83,-23.13,0,*47
1501387611.37,1847,19.81,74470.5,8.01,-22.97,-23.43,0,*46
1501387612.56,1848,19.81,74470.0,8.01,-23.13,-23.39,0,*49
1501387613.8,1849,19.75,74468.5,7.99,-23.29,-23.59,0,*49
1501387615.02,1850,19.81,74470.0,8.01,-23.23,-23.59,0,*45
1501387616.26,1851,19.81,74470.8,7.99,-22.87,-23.19,0,*41
1501387617.51,1852,19.81,74468.3,7.99,-22.97,-23.33,0,*4B
1501387618.7,1853,19.81,74468.0,8.01,-22.97,-23.39,0,*4E
1501387619.95,1854,19.81,74468.0,7.99,-23.13,-23.49,0,*4D
1501387621.19,1855,19.81,74468.0,7.99,-23.13,-23.49,0,*4C
1501387622.46,1856,19.81,74468.5,7.99,-23.19,-23.49,0,*45
1501387623.72,1857,19.81,74470.5,7.99,-23.33,-23.65,0,*42
1501387624.96,1858,19.81,74470.5,7.99,-23.33,-23.79,0,*40
1501387626.22,1859,19.81,74470.8,7.99,-23.29,-23.65,0,*47
1501387627.49,1860,19.81,74470.5,7.99,-23.29,-23.69,0,*41
1501387628.74,1861,19.81,74472.5,7.99,-23.43,-23.85,0,*4E
1501387629.93,1862,19.81,74468.0,8.01,-23.43,-23.79,0,*40
1501387631.17,1863,19.81,74464.8,7.99,-23.49,-23.79,0,*45
1501387632.41,1864,19.81,74470.0,7.99,-23.49,-23.79,0,*42
1501387633.66,1865,19.81,74472.0,7.97,-23.49,-23.85,0,*4E
1501387634.89,1866,19.81,74470.5,7.97,-23.43,-23.85,0,*47
1501387636.17,1867,19.81,74470.0,7.95,-23.53,-23.85,0,*45
1501387637.41,1868,19.81,74470.0,7.95,-23.49,-23.89,0,*4D
1501387638.63,1869,19.81,74470.5,7.97,-23.49,-23.79,0,*41
1501387639.87,1870,19.81,74470.8,7.95,-23.49,-23.89,0,*44
1501387641.12,1871,19.81,74470.8,7.95,-23.49,-23.89,0,*45
1501387642.38,1872,19.81,74468.0,7.95,-23.65,-23.99,0,*49
1501387643.66,1873,19.81,74470.0,7.95,-23.49,-23.85,0,*4B
1501387644.87,1874,19.81,74468.0,7.95,-23.39,-23.89,0,*47
1501387646.11,1875,19.81,74468.8,7.95,-23.53,-23.89,0,*4A
1501387647.39,1876,19.88,74470.5,7.95,-23.49,-23.85,0,*4E
1501387648.63,1877,19.88,74468.0,7.95,-23.53,-23.89,0,*48
1501387649.85,1878,19.81,74468.3,7.93,-23.53,-23.89,0,*41
1501387651.1,1879,19.88,74468.5,7.93,-23.49,-23.85,0,*47
1501387652.32,1880,19.88,74470.5,7.93,-23.49,-23.89,0,*4D
1501387653.54,1881,19.88,74470.0,7.93,-23.53,-23.89,0,*47
1501387654.76,1882,19.88,74470.3,7.89,-23.59,-23.95,0,*48
1501387655.98,1883,19.88,74470.5,7.93,-23.53,-23.89,0,*45
1501387657.22,1884,19.88,74470.3,7.89,-23.53,-23.95,0,*44
1501387658.44,1885,19.88,74468.3,7.89,-23.59,-23.95,0,*4F
1501387659.68,1886,19.88,74470.3,7.93,-23.69,-23.99,0,*48
1501387660.9,1887,19.88,74474.5,7.89,-23.59,-23.95,0,*4D
1501387662.15,1888,19.88,74474.8,7.93,-23.49,-23.85,0,*49
1501387663.37,1889,19.88,74474.0,7.89,-23.13,-23.53,0,*47
1501387664.59,1890,19.88,74472.0,7.93,-22.87,-23.19,0,*46
1501387665.82,1891,19.88,74468.0,7.89,-22.77,-23.09,0,*42
1501387667.05,1892,19.88,74472.5,7.89,-22.77,-23.13,0,*4A
1501387668.3,1893,19.88,74474.0,7.93,-22.77,-23.03,0,*41
1501387669.53,1894,19.88,74466.5,7.89,-22.67,-23.03,0,*4C
1501387670.73,1895,19.88,74470.0,7.93,-22.57,-22.93,0,*4D
1501387671.95,1896,19.88,74468.3,7.93,-22.73,-22.93,0,*48
1501387673.21,1897,19.88,74470.0,7.93,-22.77,-23.23,0,*47
1501387674.44,1898,19.88,74468.3,7.93,-22.93,-23.33,0,*43
1501387675.64,1899,19.88,74470.0,7.93,-23.09,-23.39,0,*4A
1501387676.89,1900,19.88,74470.3,7.93,-23.19,-23.49,0,*4D
1501387678.11,1901,19.88,74470.0,7.93,-23.19,-23.39,0,*4B
1501387679.36,1902,19.88,74470.8,7.93,-23.03,-23.49,0,*44
1501387680.58,1903,19.88,74470.5,7.95,-23.09,-23.39,0,*4E
1501387681.85,1904,19.88,74474.3,7.95,-23.03,-23.33,0,*49
1501387683.13,1905,19.88,74470.5,7.95,-23.03,-23.49,0,*45
1501387684.4,1906,19.88,74472.3,7.95,-23.19,-23.49,0,*4D
1501387685.67,1907,19.88,74472.3,7.95,-23.19,-23.49,0,*4C
1501387686.9,1908,19.88,74472.0,7.93,-23.09,-23.49,0,*44
1501387688.12,1909,19.88,74470.5,7.93,-23.09,-23.49,0,*45
1501387689.36,1910,19.88,74468.8,7.93,-23.23,-23.65,0,*4B
1501387690.61,1911,19.88,74468.8,7.93,-23.23,-23.65,0,*4A
1501387691.86,1912,19.88,74468.3,7.93,-23.19,-23.33,0,*43
1501387693.1,1913,19.88,74468.0,7.93,-23.23,-23.65,0,*48
1501387694.34,1914,19.88,74470.8,7.89,-23.29,-23.69,0,*42
1501387695.59,1915,19.88,74468.8,7.93,-23.19,-23.53,0,*42
1501387696.83,1916,19.88,74472.3,7.93,-23.23,-23.53,0,*48
1501387698.02,1917,19.88,74474.0,7.93,-23.39,-23.75,0,*46
1501387699.27,1918,19.88,74472.0,7.95,-23.49,-23.89,0,*4B
1501387700.49,1919,19.88,74472.3,7.89,-23.53,-23.89,0,*4C
1501387701.71,1920,19.94,74474.5,7.89,-23.53,-23.89,0,*46
1501387702.9,1921,19.88,74472.3,7.93,-23.39,-23.75,0,*43
1501387704.14,1922,19.94,74472.8,7.93,-23.33,-23.69,0,*47
1501387705.34,1923,19.94,74476.0,7.89,-23.39,-23.79,0,*46
1501387706.58,1924,19.94,74474.8,7.93,-23.33,-23.69,0,*41
1501387707.79,1925,19.94,74474.8,7.89,-23.39,-23.69,0,*41